Regional Weather Roundup
Issued by NWS

Home | Current Version | Previous Version | Text Only | Print | Product List | Glossary Off
Versions: 1 2 3 4 5 6 7 8 9 10 11 12 13 14 15 16 17 18 19 20 21 22 23 24 25 26 27 28 29 30 31 32 33 34 35 36 37 38 39 40 41 42 43 44 45 46 47 48 49 50

000
ASUS45 KABQ 271910
RWRNM
WEATHER ROUNDUP FOR NEW MEXICO
NATIONAL WEATHER SERVICE ALBUQUERQUE NM
1200 PM MST THU NOV 27 2014

NOTE: "FAIR" MEANS FEW OR NO CLOUDS BELOW 12,000 FEET AGL WITH NO
       SIGNIFICANT WEATHER OR OBSTRUCTIONS TO VISION.

      THIS PRODUCT IS RELEASED AS TWO VERSIONS.  ONE VERSION NEAR
      THE TOP OF THE HOUR CONTAINING PRELIMINARY DATA FROM ALBUQUERQUE
      AND OTHER STATIONS.  A FINAL VERSION WITH ADDITIONAL DATA IS
      ISSUED ABOUT 10 MINUTES AFTER THE HOUR.

NMZ501-503-504-510>518-272000-
NORTHWEST PLATEAU/NORTHCENTRAL MOUNTAINS

CITY           SKY/WX    TMP DP  RH WIND       PRES   REMARKS
FARMINGTON     SUNNY     49  24  37 VRB6      30.43F
LOS ALAMOS     SUNNY     49  23  35 CALM      30.44F
SANTA FE       SUNNY     54  22  28 N14       30.40F
TAOS           SUNNY     48  23  37 N3        30.45F
ANGEL FIRE     FAIR      34  21  59 CALM      30.46F

$$
NMZ402-403-502-505>509-272000-
WESTCENTRAL MOUNTAINS/SOUTHWEST MOUNTAINS

CITY           SKY/WX    TMP DP  RH WIND       PRES   REMARKS
GALLUP         SUNNY     52  19  27 CALM      30.45F
GRANTS         SUNNY     55  16  21 N3        30.45F
SILVER CITY    SUNNY     63  19  19 S12G17    30.41F

$$
NMZ407-409-411-412-272000-
SOUTHERN DESERTS

CITY           SKY/WX    TMP DP  RH WIND       PRES   REMARKS
LORDSBURG      FAIR      64  23  20 SE16G22   30.36F
DEMING         SUNNY     64  23  21 E9        30.38F
LAS CRUCES     SUNNY     61  23  23 CALM      30.39F
HOLLOMAN AFB   SUNNY     60  23  24 CALM      30.37F
ALAMOGORDO     SUNNY     61  23  23 S6        30.38F
T OR C         SUNNY     59  22  24 E3        30.39F

$$
NMZ519>523-272000-
CENTRAL VALLEYS/CENTRAL HIGHLANDS

CITY           SKY/WX    TMP DP  RH WIND       PRES   REMARKS
ALBUQUERQUE    MOSUNNY   52  24  33 SW3       30.42F
DOUBLE EAGLE   SUNNY     54  23  30 CALM      30.43F
MORIARTY ARPT  FAIR      55  24  29 S3        30.41F
CLINES CORNERS SUNNY     54  23  30 NW23      30.38F
BELEN          FAIR      55  22  28 E3        30.42F
SOCORRO        FAIR      57  23  26 N7        30.41F

$$
NMZ524>526-539-540-272000-
SOUTHCENTRAL MOUNTAINS

CITY           SKY/WX    TMP DP  RH WIND       PRES   REMARKS
RUIDOSO        SUNNY     61  19  20 E3        30.43F

$$
NMZ527>531-272000-
NORTHEAST HIGHLANDS/NORTHEAST PLAINS

CITY           SKY/WX    TMP DP  RH WIND       PRES   REMARKS
LAS VEGAS      SUNNY     63  16  16 S9        30.36F
RATON          MOSUNNY   56  20  24 VRB5      30.30F
CLAYTON        MOSUNNY   65  23  20 S20       30.24F

$$
NMZ532>537-272000-
EASTCENTRAL PLAINS

CITY           SKY/WX    TMP DP  RH WIND       PRES   REMARKS
TUCUMCARI      SUNNY     59  28  30 SW18      30.29F
CANNON AFB     SUNNY     58  27  30 S16G24    30.34F
CLOVIS AIRPORT SUNNY     57  28  33 SW18G25   30.34F

$$
NMZ028-029-538-272000-
SOUTHEAST PLAINS

CITY           SKY/WX    TMP DP  RH WIND       PRES   REMARKS
ROSWELL        SUNNY     55  31  39 S12       30.37F
CARLSBAD       SUNNY     56  31  38 S10       30.37F
HOBBS          SUNNY     55  32  41 S10       30.41F


$$



USA.gov is the U.S. government's official web portal to all federal, state and local government web resources and services.